This is the latest recevied weather packets stored in our database for station/object W5ITZ. If no packets are shown the sender has not sent any weather packets the latest 10 day(s).
| Time | Temp. | Humidity | Pressure | Rain* | Wind** | Luminosity | Snow |
|---|---|---|---|---|---|---|---|
| 1788012215 | 28.33° C | 84% | 1018.1 hPa | 0 mm | - | 161 W/m² | - |
| 1788011922 | 28.33° C | 83% | 1017.8 hPa | 0 mm | - | 143 W/m² | - |
| 1788011613 | 28.33° C | 83% | 1018 hPa | 0 mm | - | 161 W/m² | - |
| 1788011309 | 28.33° C | 83% | 1018 hPa | 0 mm | - | 131 W/m² | - |
| 1788011007 | 28.33° C | 83% | 1017.9 hPa | 0 mm | - | 218 W/m² | - |
| 1788010704 | 27.78° C | 83% | 1017.6 hPa | 0 mm | - | 198 W/m² | - |
| 1788010401 | 27.78° C | 84% | 1017.7 hPa | 0 mm | - | 183 W/m² | - |
| 1788010096 | 27.22° C | 85% | 1017.8 hPa | 0 mm | - | 164 W/m² | - |
| 1788009791 | 27.22° C | 86% | 1017.6 hPa | 0 mm | - | 158 W/m² | - |
| 1788009490 | 26.67° C | 87% | 1017.5 hPa | 0 mm | - | 134 W/m² | - |
| 1788009184 | 26.11° C | 89% | 1017.7 hPa | 0 mm | - | 125 W/m² | - |
| 1788008880 | 25.56° C | 91% | 1017.6 hPa | 0 mm | - | 108 W/m² | - |
| 1788008575 | 25.56° C | 91% | 1017.6 hPa | 0 mm | - | 95 W/m² | - |
| 1788008272 | 25° C | 92% | 1017.4 hPa | 0 mm | - | 84 W/m² | - |
| 1788007971 | 25° C | 92% | 1017.4 hPa | 0 mm | - | 73 W/m² | - |
| 1788007669 | 24.44° C | 93% | 1017.4 hPa | 0 mm | - | 46 W/m² | - |
| 1788007365 | 24.44° C | 93% | 1017.3 hPa | 0 mm | - | 40 W/m² | - |
| 1788007059 | 23.89° C | 94% | 1017.3 hPa | 0 mm | - | 37 W/m² | - |
| 1788006758 | 23.89° C | 94% | 1017.2 hPa | 0 mm | - | 34 W/m² | - |
| 1788006453 | 23.89° C | 94% | 1017.2 hPa | 0 mm | - | 27 W/m² | - |
| 1788006153 | 23.89° C | 94% | 1017.2 hPa | 0 mm | - | 21 W/m² | - |
| 1788005852 | 23.33° C | 94% | 1017.2 hPa | 0 mm | - | 15 W/m² | - |
| 1788005547 | 23.33° C | 94% | 1017.3 hPa | 0 mm | - | 10 W/m² | - |
| 1788005246 | 23.33° C | 94% | 1017.1 hPa | 0 mm | - | 6 W/m² | - |
| 1788004944 | 23.33° C | 94% | 1016.9 hPa | 0 mm | - | 4 W/m² | - |
* Rain latest hour (hover to see other rain measurements)
** Current wind speed in m/s (hover to see current wind gust speed)